User: anonymous   Login
Location: Prague
(50.0830°N, 14.4670°E)
Time: 20:29:54
(UTC+01:00)
Language:

XW-2B - Orbit

View from above orbital plane
View from above orbital plane
View from above satellite
View from above satellite

Ground track
Ground track

The orbit data is extracted from the following two-line orbital elements,

1 40911U 15049N   21341.49570113  .00002260  00000-0  11572-3 0  9994
2 40911  97.4883 342.3045 0012418 310.0227 216.0748 15.17581102343726
Epoch (UTC): 07 December 2021 11:53:48
Eccentricity: 0.0012418
inclination: 97.4883°
perigee height: 504 km
apogee height: 522 km
right ascension of ascending node: 342.3045°
argument of perigee: 310.0227°
revolutions per day: 15.17581102
mean anomaly at epoch: 216.0748°
orbit number at epoch: 34372

The dashed part of the orbit path shows where the satellite is in the earth's shadow,  

DLR